Zurück zum Katalog

COSMOS 2491 DEB

LostPO
NORAD 57551·DEBRIS·🇷🇺 Russia

Gestartet Dec 25, 2013 von Plesetsk Cosmodrome

Loading…

Nächste Überflüge (nächste 24 Stunden)

TLE

VeraltetSource: Space-Track

Epoche: Apr 21, 2026, 22:52 UTC

1 57551U 13076AN  26111.95326265  .00001865  00000-0  11401-1 0  9997
2 57551  82.4300 196.0778 0126761 151.5550 209.2531 12.52909790134739

Verfolge COSMOS 2491 DEB in Echtzeit mit AllMySat

Download on the App Store